Louisville, KY

7:46 PM EDT on September 25, 2017 (GMT -0400)
Louisville International-Standiford

Weather History for KSDF - January, 2013

Change the Weather History Date:

Tuesday, January 29, 2013

  Actual Average Record
Temperature  
Mean Temperature 61 °F 36 °F  
Max Temperature 67 °F 44 °F 73 °F (1975)
Min Temperature 55 °F 27 °F -4 °F (1977)
Degree Days  
Heating Degree Days 4 29  
Month to date heating degree days 781 869  
Since 1 July heating degree days 2272 2445  
Cooling Degree Days 0 0  
Month to date cooling degree days 0 0  
Year to date cooling degree days 0 0  
Growing Degree Days 10 (Base 50)    
Moisture  
Dew Point 55 °F    
Average Humidity 80    
Maximum Humidity 86    
Minimum Humidity 73    
Precipitation  
Precipitation 0.00 in 0.10 in 2.13 in (1916)
Month to date precipitation 4.33 3.01  
Year to date precipitation 4.33 3.01  
Snow  
Snow 0.00 in 0.20 in 3.00 in (1909)
Month to date snowfall 0.5 3.4  
Since 1 July snowfall 3.2 6.2  
Snow Depth 0.00 in    
Sea Level Pressure  
Sea Level Pressure 29.90 in    
Wind  
Wind Speed 14 mph (South)    
Max Wind Speed 28 mph    
Max Gust Speed 37 mph    
Visibility 9 miles    
Events      
T = Trace of Precipitation, MM = Missing Value Source: NWS Daily Summary

Daily Weather History Graph

Daily Weather History Graph

Search for Another Location

Airport or City:

Trip Planner

Search our weather history database for the weather conditions in past years. The results will help you decide how hot, cold, wet, or windy it might be!

Date:

Astronomy

Jan. 29, 2013 Rise Set
Actual Time 7:50 AM EST 6:02 PM EST
Civil Twilight 7:22 AM EST 6:30 PM EST
Nautical Twilight 6:50 AM EST 7:02 PM EST
Astronomical Twilight 6:19 AM EST 7:33 PM EST
Moon 8:54 PM EST (1/29) 8:49 AM EST (1/29)
Length of Visible Light 11h 08m
Length of Day
10h 12m
Waning Gibbous, 94% of the Moon is Illuminated
Jan 29
Waning Gibbous
Feb 3
Last Quarter
Feb 10
New
Feb 17
First Quarter
Feb 25
Full

Hourly Weather History & Observations

Time (EST) Temp. Dew Point Humidity Pressure Visibility Wind Dir Wind Speed Gust Speed Precip Events Conditions
12:56 AM 59.0 °F 52.0 °F 78% 30.08 in 9.0 mi South 10.4 mph - N/A   Overcast
1:56 AM 59.0 °F 52.0 °F 78% 30.06 in 10.0 mi SSW 9.2 mph - N/A   Mostly Cloudy
2:56 AM 59.0 °F 52.0 °F 78% 30.06 in 10.0 mi South 10.4 mph - N/A   Mostly Cloudy
3:56 AM 57.9 °F 51.1 °F 78% 30.03 in 10.0 mi South 10.4 mph - N/A   Scattered Clouds
4:56 AM 57.0 °F 51.1 °F 81% 30.01 in 10.0 mi South 10.4 mph - N/A   Scattered Clouds
5:56 AM 55.9 °F 51.1 °F 84% 30.00 in 9.0 mi South 8.1 mph - N/A   Mostly Cloudy
6:56 AM 57.9 °F 52.0 °F 81% 30.01 in 10.0 mi South 6.9 mph - N/A   Overcast
7:56 AM 55.9 °F 52.0 °F 87% 30.01 in 7.0 mi South 6.9 mph - N/A   Mostly Cloudy
8:01 AM 57.2 °F 51.8 °F 82% 30.01 in 7.0 mi SSE 5.8 mph - N/A   Overcast
8:56 AM 57.9 °F 53.1 °F 84% 30.01 in 8.0 mi South 10.4 mph - N/A   Overcast
9:56 AM 59.0 °F 54.0 °F 83% 30.00 in 8.0 mi South 12.7 mph - N/A   Overcast
10:56 AM 61.0 °F 55.0 °F 81% 29.99 in 8.0 mi South 15.0 mph - N/A   Mostly Cloudy
11:56 AM 63.0 °F 55.0 °F 75% 29.96 in 8.0 mi South 16.1 mph 21.9 mph N/A   Overcast
12:56 PM 63.0 °F 55.0 °F 75% 29.94 in 8.0 mi South 12.7 mph - N/A   Overcast
1:56 PM 63.0 °F 55.9 °F 78% 29.90 in 8.0 mi South 12.7 mph - N/A   Overcast
2:56 PM 64.0 °F 55.9 °F 75% 29.85 in 8.0 mi South 16.1 mph 23.0 mph N/A   Overcast
3:56 PM 64.9 °F 57.0 °F 75% 29.82 in 9.0 mi South 12.7 mph 21.9 mph N/A   Overcast
4:56 PM 64.9 °F 57.9 °F 78% 29.80 in 9.0 mi South 15.0 mph - N/A   Overcast
5:08 PM 64.4 °F 57.2 °F 77% 29.81 in 9.0 mi South 11.5 mph - N/A   Overcast
5:56 PM 66.0 °F 57.9 °F 75% 29.79 in 10.0 mi South 11.5 mph 19.6 mph N/A   Overcast
6:04 PM 66.2 °F 57.2 °F 73% 29.79 in 10.0 mi South 12.7 mph - N/A   Overcast
6:56 PM 66.9 °F 57.9 °F 73% 29.76 in 10.0 mi South 20.7 mph 26.5 mph N/A   Overcast
7:56 PM 66.9 °F 57.9 °F 73% 29.74 in 10.0 mi South 21.9 mph 33.4 mph N/A   Mostly Cloudy
8:56 PM 66.9 °F 57.9 °F 73% 29.72 in 10.0 mi South 19.6 mph 25.3 mph N/A   Mostly Cloudy
9:56 PM 66.0 °F 59.0 °F 78% 29.68 in 10.0 mi South 17.3 mph 31.1 mph N/A   Scattered Clouds
10:56 PM 66.9 °F 59.0 °F 76% 29.62 in 10.0 mi South 21.9 mph 34.5 mph N/A   Scattered Clouds
11:56 PM 66.9 °F 57.9 °F 73% 29.56 in 10.0 mi South 21.9 mph 32.2 mph N/A   Scattered Clouds